Location: B?ogocice
(50.2413°N, 20.2361°E)
Time: 23:53:51
(UTC+00:00)

NOSS 3-2 (C) - Pass Details

Date: 15 June 2024
Orbit: 707 x 1504 km, 63.4° (Epoch: 17 July)

Event Time Altitude Azimuth Distance (km) Brightness Sun altitude
Exits shadow 01:05:12 12° 218° (SW) 2,163 4.7 -9.7°
Maximum altitude 01:10:05 85° 132° (SE) 872 3.3 -9.3°
Drops below altitude 10° 01:16:28 10° 44° (NE) 2,774 7.5 -8.7°
Sets 01:19:20 0° 44° (NE) 3,857 8.9 -8.4°
